Regional Weather Roundup
Issued by NWS Spokane, WA

Home | Current Version | Previous Version | Text Only | Print | Product List | Glossary On
Versions: 1 2 3 4 5 6 7 8 9 10 11 12 13 14 15 16 17 18 19 20 21 22 23 24 25 26 27 28 29 30 31 32 33 34 35 36 37 38 39 40 41 42 43 44 45 46 47 48 49 50
000
NZUS01 KOTX 190300
RWROTX

Eastern Washington/Northern Idaho Roundup
National Weather Service, Spokane WA
800 PM PDT FRI AUG 18 2017

Note: "fair" indicated few or no clouds below 12,000 feet with no
significant weather and/or obstructions to visibility.

...Northeast Washington and Northern Idaho Panhandle...

CITY           SKY/WX    TMP DP  RH WIND       PRES   REMARKS
Spokane Intl   MOCLDY    79  36  21 SW12      29.94F
Spokane Downto FAIR      82  38  20 W6        29.93S
Coeur d Alene  FAIR      77  40  26 SW9       29.94S
Deer Park      FAIR      78  35  21 SW9       29.92F

...Southeast Washington and southern Idaho Panhandle...

CITY           SKY/WX    TMP DP  RH WIND       PRES   REMARKS
Walla Walla    FAIR      84  46  26 SE6       29.93S
Pullman/Moscow FAIR      74  37  26 W5        30.01R
Lowell           N/A     73  50  44 CALM      29.91R

...Columbia Basin...

CITY           SKY/WX    TMP DP  RH WIND       PRES   REMARKS
Ephrata        FAIR      78  44  29 NW21      29.91S
Moses Lake     FAIR      79  46  31 NW12      29.92R
Pasco          FAIR      81  50  33 NW12      29.90S
Hermiston      FAIR      83  50  31 W21G26    29.89F
Pendleton      FAIR      81  43  26 W15       29.96R

...East Slopes Cascades...

CITY           SKY/WX    TMP DP  RH WIND       PRES   REMARKS
The Dalles     FAIR      80  51  36 NW22G30   29.99R
Yakima         FAIR      81  52  36 NW10      29.97R
Ellensburg     FAIR      69  51  52 NW25G36   30.03R
Wenatchee      FAIR      75  45  34 NW18      29.97R
Omak           FAIR      79  37  22 NW21G32   29.89R
Sunnyside        N/A     75  51  42 W7        29.93S

...Southern British Columbia...

CITY           SKY/WX    TMP DP  RH WIND       PRES   REMARKS

...Western Montana...

CITY           SKY/WX    TMP DP  RH WIND       PRES   REMARKS
Kalispell      FAIR      79  36  21 SW8       29.90R
Missoula       FAIR      78  27  15 NW10      29.97R

...Neighboring Cities...

CITY           SKY/WX    TMP DP  RH WIND       PRES   REMARKS
Seattle        MOCLDY    68  55  63 W5        30.13S
Portland       FAIR      73  59  61 N10G18    30.10S
Boise          FAIR      85  28  12 CALM      29.97S
Great Falls    CLOUDY    76  28  17 SW12      29.89R HAZE



USA.gov is the U.S. government's official web portal to all federal, state and local government web resources and services.